Meath Environmental Platform

Observations for Trim Market St

Time AQI Temp °C Hum % Pres Pa CO μg/m³ H₂S μg/m³ NO μg/m³ NO₂ μg/m³ O₃ μg/m³ SO₂ μg/m³ PM1 μg/m³ PM2.5 μg/m³ PM10 μg/m³
Wednesday 26 August 2026
12:03 2 19.6 79 2,147,483,647 0.23 0 1.2 13.6 39.05 0 8.55 9.72 13.83
11:58 2 19.6 79 2,147,483,647 0.26 0 0.88 13.65 35.39 0 9.26 12.54 17.24
11:57 2 19.5 80 2,147,483,647 0.29 0 0.99 15.31 33.38 0 10.69 12.06 18.37
11:56 2 19.5 80 2,147,483,647 0.4 0 0.95 15.05 28.09 0 9.26 9.69 13.81
11:55 2 19.5 80 2,147,483,647 0.29 0 0.99 12.09 36.55 0 9.26 9.69 14.37
11:54 2 19.5 80 2,147,483,647 0.26 0 1.01 13.11 34.45 0 7.13 9.67 16.06
11:52 2 19.5 80 2,147,483,647 0.26 0 1.58 13.39 35.83 0 9.26 10.13 14.34
11:50 2 19.5 80 2,147,483,647 0.28 0 1.65 17.03 26.56 0 10.69 11.54 17.17
11:49 2 19.4 80 2,147,483,647 0.3 0 1.52 19.35 29.82 0 9.26 10.12 15.46
11:48 2 19.5 80 2,147,483,647 0.34 0 1.29 19.93 28.39 0 8.55 9.64 16.58
11:46 2 19.4 80 2,147,483,647 0.3 0 0.88 18.72 25.76 0 7.84 9.15 13.74
11:38 2 19.3 81 2,147,483,647 0.28 0 0.49 18.76 32.6 0 9.26 10.53 15.38
11:37 2 19.3 81 2,147,483,647 0.27 0 0.6 19.73 33.56 0 9.26 11.46 17.62
11:34 2 19.2 81 2,147,483,647 0.26 0 0.69 15.66 38.45 0 9.98 11.44 15.92
11:32 2 19.2 82 2,147,483,647 0.26 0 0.67 15.42 38.82 0 9.98 10.97 17.03
11:27 2 19.1 82 2,147,483,647 0.25 0 0.69 19.67 38.33 0 9.98 10.97 13.66
11:26 2 19 82 2,147,483,647 0.25 0 0.73 19.1 38.51 0 9.98 10.95 17.01
11:25 2 19 82 2,147,483,647 0.24 0 0.84 19.34 35.85 0 9.98 10.48 15.33
11:24 2 18.9 82 2,147,483,647 0.23 0 1.15 18.03 44.23 0 6.41 8.14 13.1
11:23 2 18.9 82 2,147,483,647 0.23 0 1.02 17.25 41.15 0 8.55 10.48 16.44